Location: Bottens
(46.6171°N, 6.6605°E)
Time: 14:51:09
(UTC+00:00)

ATLAS 5 CENTAUR R/B - Pass Details

Date: 03 November 2021
Orbit: 497 x 1159 km, 63.4° (Epoch: 25 November)

Event Time Altitude Azimuth Distance (km) Brightness Sun altitude
Rises 18:06:31 0° 313° (NW) 2,896 5.7 -19.5°
Reaches altitude 10° 18:10:24 10° 348° (NNW) 2,141 4.4 -20.2°
Maximum altitude 18:12:02 12° 8° (N) 2,106 4.2 -20.5°
Enters shadow 18:13:11 11° 21° (NNE) 2,201 4.2 -20.7°
